[Date Prev][Date Next][Thread Prev][Thread Next][Date Index][Thread Index][JAMSAT Home]

[jamsat-news:1777] jas2info #306


========================   最新情報   ==============================

        Last updated  08Feb2003  18:45(JST)   #306

====================================================================
   
1)アマチュア通信衛星情報、FOシリーズの軌道要素、テレメトリ、QSOの
   状況等をまとめてみました.
   
 FO−29の2003年2月8日(土)の15:55(JST)のパスでは
JARLのホームページにあるとうりアナログ運用でした。 今日までの観測した
テレメトリーと本日のテレメトリ最終行の分析結果を報告しておきます。

AS31992C  08Feb2003
16:00-16:11(JST)
AOS   MEL  LOS  Elev
 15   102  125  69.7
Freq. 435.802-.787Hz
(JAS-2  No.117  B 880-1450) 

HI HI AE C7 88 55 00 D4 BE D2 09 02 4E 51 78 60 8F 90 B0 4D AC AA AB AC A7 
HI HI AE C7 88 55 00 D4 BE D2 09 02 4F 3F 75 5F       B0    AC A9 AB AB A7 
HI HI AE C7 88 55 00 D4 BE D2 09 02 5F 88    5F 8F 8F B0 79 AC AA AB AB A7 
HI HI AE C7 88 55 00 D4 BE D2 09 02 5E 87    5F 8F 8F B0 6A AC AA AB AB A7 
HI HI AE C7 88 55 00 D4 BE D2 09 02 40 47 72 60 8F 8F B0 6E AC AA AB AB A7 
HI HI AE C7 88 55 00 D4 BE D2 09 02 6E 32 83 5F 8F 8F B0 6D AC A9 AB AB A7 
HI HI AE C7 88 55 00 D4 BE D2 09 02 68 5B 81 5F 8F 8F B0 86 AC A9 AB AB A7 
HI HI AE C7 88 55 00 D4 FD 21 09 03 3A 6B 72 5F 8F 8F B0 75 AC A9 AB AB A7 
HI HI AE C7 88 55 00 D4 15 D9 09 02 61 43 71 5F 8F 8F B0 84 AC A9 AB AB A7 
HI HI AE C7 88 55 00 D4 15 D9 09 02 8A 48 7B 5F 90 85 B0 73 AB A9 AB AE A7 
HI HI AE C7 88 55 00 D4 58 DA 09 18 51 75 84 5F 90 8F B0 84 AB I9 AA AB A7 
HI HI AE C7 88 55 00 D4 69 DB 09 15 44 75 83 60 90 8F B0 82 AB A9 AB AB A7 
HI HI AE C7 88 55 00 D4 69 DC 09 33 8A 61 81 60 90 90 B0 7E AB A9 AB AB A7 

AS31991C  08Feb2003
14:13-14:21(JST)
AOS   MEL  LOS  Elev
 44    84  125   6.9
Freq. 435.800-.792Hz
(JAS-2  No.117  B 240-880) 

HI HI AE C7 88 55 00 D4 5B D7 09 51 82 53 5F 55 90 91 B0 84 AB AA AC AC A7 
HI HI AE C7 88 55 00 D4 B9 D7 09 71 80 47 71 5F 8E 8F B0 8C AB AA AB AB A7 
HI HI AE 07 88 55 00 D4 21 D8 09 76 71 45 6F 5F 8F 8F B0 86 AB AA AC AB A7 
HI HI AE C7 88 55 00 D4 21 D8 09 7C 81 5B 7B 48 90 91 B0 82 AB AA AC AC A7 
HI HI AE C7 88 55 00 D4 8A D8 09 7C 8D 4F 6E 5F 8F 8F B0 8D AB A9 AB AB A7 
HI HI AE C7 88 55 00 D4 28 D8 09 79 68 38 82 5F 8F 8F B0 92 AB A9 AC AC A7
HI HI AE C7 88 55 00 D4 29 D9 09 6E 6D 56 7B 5F 8F 8F B0 73 AB A9 AC AC A7 
HI HI AE C7 88 55 00 D4 29 D9 09 6E 94 61 6D 5F 8F 8F B0 76 AB A9 AB AC A7 
HI HI AE C7 88 55 00 D4 33 D9 09 66 70 57 7F 5F 8F 8F B0 74 AB A9 AB AC A7 
HI HI AE C7 88 55 00 D4 E8 D8 09 22 52 47 7F 5F 8F 8F B0 93 AB A9 AB AC A7 
HI HI AE C7 88 55 00 D4 E8 D8 09 2E 89 68 7F

AS31987C  07Feb2003
15:16-15:19(JST)
AOS   MEL  LOS  Elev
 26    93  161   26.6
Freq. 435.790-.788Hz
(JAS-2  No.117  B 0-240)
                                                                   C AB A7 
HI HI AE C7 88 55 00 D4 11 DF 09 7D 8A 87 7C 5F 8F 8F B0 7E AB AA AB AB A7 
HI HI AE C7 88 55 00 D4 79 DF 09 79 7E 51 7D 5F 90 8F B0 86 AB AA AB AB A7 
HI HI AE C7 88 55 00 D4 BD DF 09 6E 42 4F 84 5F 90 90 B0 74 AB A9 AB AB A7 
HI HI AE C7 88 55 00 D4 BD DF 09 66 75 8D 89 60 90 90 B0 78 AB A9 AB AB A7 
HI HI AE C7 

AS31964C  06Feb2003
14:17-14:26(JST)
AOS   MEL  LOS  Elev
 42    84  128   8.1
Freq. 435.800-.791Hz
(JAS-2  No.117  A 1900-2260END)

                                                      9C 9F AB A8 AA AB A5 
HI HI AE 07 88 55 00 D4 2D E2 0B 59    97 73 4D 8F 8F 9C 7A AB A8 AA AB A5 
HI HI AE 07 88 55 00 D4 2D E2 09 59 6D A4 5E 57 8F 8F 9C 80 AB A8 AA AB A5 
HI HI AE 07 88 55 00 D4 2D E2 09 59 57 98 9C 6C 8F 9F B0 7A AB A8 AA AB A5 
HI HI AE 07 88 55 00 D4 2D E2 09 59 55 78 5F 5F 90 9E B0 6C AB A8 AA AB A5 
HI HI AE 07 88 55 00 D4 2D E2 79 59 5A          8F 90 9E 8D AB A8 AA AB A5 
HI HI AE C7 88 55 00 D4 2D E2 09 59 5B 9B 66 57 8F 90 9E 8B AB A8 AA AB A5 
HI HI AE 07 88 55 00 D4 2D E2 09 59 45 8C 71 4E 90 90 9D 8D AB A8 AA AB A5 
HI HI AE 07 88 55 00 D4 2D E2 09 59 73 94 79 5F 8E 8F 9D 55 AB A8 AA AB A5 
HI HI AE C7 88 55 00 D4 2D E2 09 59 61 9C 65 5F 8E 8F 9D 8B AB A8 AA AB A5 
HI HI AE C7 88 55 00 D4 2D E2 09 59 3F 71 65 5F 8E 8F B0 6C AB A7 AA AB A5 
HI HI AE 07 88 55 00 D4 2D E2 09 59 7B 7A 84 5F 8E 8F B0 77 AB A8 AA AB A5 
HI HI AE C7 88 55 00 D4 2D E2 09 59 78 7B 88 5F 90 91 B0 86 AB A8 AA AB A5 
HI HI AE C7 88 55 00 D4 2D   

AS31951C  05Feb2003
15:08-15:24(JST)
AOS   MEL  LOS  Elev
 25    93  163  29.0
Freq. 435.804-.788Hz
(JAS-2  No.117  A 1130-1900)
                                                                  A7 A8 A2 
HI HI AE 07 88 55 00 D4 64 E5 09 40 99 66 66 4B 8C 8A 97 8F A8 A6 A7 A8 A2 
HI HI AE 07 88 55 00 D4 64 E5 09 40 87 68 55 50 8A 89 96 85 A8 A6 A7 A8 A2 
HI HI AE 07 88 55 00 D4 64 E5 09 40 86 8F 6E 51 8D 8B 98 85 A8 A6 A7 A8 A2 
HI HI AE 07 88 55 00 D4 64 E5 09 40 88 8D 58 54 8D 8C 99 85 A8 A6 A7 A9 A2 
HI HI AE 07 88 55 00 D4 64 E5 09 40 81 7A 5E 58 8C 8B 98 6D A8 A6 A7 A9 A2 
HI HI AE 07 88 55 00 D4 64 E5 09 40 74 83 64 59 8D 8C 98 80 A8 A6 A7 A9 A2 
HI HI AE 07 88 55 00 D4 64 E5 09 40 72 8C 5E 55 8F 8E 88 82 A9 A6 A8 A9 A2 
HI HI AE 07 88 55 00 S4 64 E5 09 40 7B 95 5E AA 8D 8D 9A 88 A9 A6 A7 A9 A2 
HI HI AE 07 88 55 00 D4 64 E5 09 40 6E 90 53 5E 8D 8D 9A 79 A8 A6 A7 A9 A2 
HI HI AE 07 88 55 00 D4 64 E5 09 40 64 98 78 4A 91 90 9E 76 A9 A6 A8 A9 A2
HI HI AE 07 88 55 00 D4 64 E5 09 40 62 9A 7E 48 91 91 9F 6B A9 A6 A7 A9 A2 
HI HI AE C7 88 55 00 D4 64 E5 09 40 60 56 6A 4E 8E 8E 9C 80 A9 A5 A7 A9 A2 
HI HI AE 07 88 55 00 D4 64 E5 09 40 58 78 6B 53 8F 8F 9D 81 A9 A5 A7 A9 A2  
HI HI AE 07 88 55 00 D4 64 E5 09 40 4B 83 79 5F 8E 8F B0 79 A9 A5 A7 A9 A2 
HI HI AE 07 88 55 00 D4 64 E5 09 40 6C A5 6E 4F 90 91 B0 51 A9 A5 A7 A9 A2 
HI HI AE C7 88 55 00 D4 64 E5 09 40 8C 86 5F 60 8F 90 B0 6D A9 A5 A7 A9 A3 
HI HI AE 07 88 55 00 D4 64 E5 09 40 8B 7A 60 5F 8F 8F B0 7C A9 A5 A8 A9 A2 
HI HI AE 07 88 55 00 D4 64 E5 09 40 90 56 8C 76 8F 8F 8F B0 86 A5 A7 A9 A3 
HI HI AE C7 88 55 00 D4 64 E5 09 40 92 88 66 60 8F 8F B0 82 A9 A5 A7 A9 A3 
HI HI AE C7 88 55 00 D4 64 E5 09 40 60 6C 69 60 8F 90 B0 8E A9 A5 A7 A9 A3 
HI HI AE C7 88 55 00 D4 64 E5 09 40 41 5D 78 4D 8F 90 9D 77 A8 A5 A7 A9 A3 
HI HI AE C7 88 55 00 D4 64 E5 09 40 8A 6F 7F 5E 8F 8F B0 89 A8 A5 A6 A9 A3  
HI HI AE 07 88 55 00 D4  

AS31939C  04Feb2003
17:48-18:02(JST)
AOS   MEL  LOS  Elev
354   301  244  16.8
Freq. 435.803-.789Hz
(JAS-2  No.117  A 220-1130)

HI HI AE 07 88 55 00 D4 00 00 09 00 55 AB A6 5D 89 8A 95 81 A6 A6 A7 A6 A0 
HI HI AE 07 88 55 00 D4 00 00 09 00 3E AB 7B 49 8C 8A 97 72 A6 A6 A7 A6 A0 
HI HI AE 07 88 55 00 D4 00 00 09 00 3F 72 6E 4E 8B 89 97 9D A6 A6 A7 A6 A0 
HI HI AE 07 88 55 00 D4 00 00 09 00 73 7C 6A 4A 89 88 95 76 A6 A6 A7 A6 A0 
HI HI AE 07 88 55 00 D4 00 00 09 00 6D AA 68 56 8A 89 97 76 A6 A6 A7 A6 A0
HI HI AE 07 88 55 00 D4 00 00 09 00 57 A4 74 4B 8D 8B 98 79 A6 A6 A7 A6 A0 
HI HI AE 07 88 55 00 D4 00 00 09 00 52 89 68 51 8B 8A 97 94 A6 A6 A7 A6 A0 
HI HI AE 07 88 55 00 D4 00 00 09 00 6B 91 4C 62 8B 89 96 5D A6 A6 A7 A6 A0 
HI HI AE 07 88 55 00 D4 00 00 09 00 6C A4 72 52 8D 8A 98 79 A6 A6 A7 A6 A0 
HI HI AE 07 88 55 00 D4 00 00 09 00 63 AA 74 4D 8D 8C 9A 84 A6 A6 A7 A6 A0 
HI HI AE 07 88 55 00 D4 00 00 09 00 65 A6 61 56 8C 8B 99 75 A6 A6 A7 A6 A0 
HI HI AE 07 88 55 00 D4 00 00 09 00 65 9F 5A 5C 8D 8C 99 9A A6 A6 A7 A6 A0 
HI HI AE 07 88 55 00 D4 00 00 09 00 7C 9F 77 4F 8F 8E 9C 71 A6 A6 A7 A5 A1 
HI HI AE 07 88 55 00 D4 00 00 09 00 7C AD 78 4A 8F 8F 9D 7A A6 A6 A7 A5 A0
HI HI AE 07 88 55 00 D4 00 00 09 00 81 97 79 5B 8F 8E 9E A5 A6 A6 A7 A5 A0 
HI HI AE 07 88 55 00 D4 00 00 09 00 88 96 74 55 8E 8F 9C 6F A6 A6 A7 A5 A1 
HI HI AE 07 88 55 00 D4 00 00 09 00 65 94 72 5F 8D 8F 91 87 A6 A6 A7 A5 A1 
HI HI AE 07 88 55 00 D4 00 00 09 00 6D 94 73 5F 8E 8F B0 67 A6 A6 A7 A5 A1  
HI HI AE 07 88 55 00 D4 00 00 09 00 6D 97 79 60 8F 8F B0 76 A6 A6 A7 A5 A1

------------------------  FO-29の軌道要素 ------------------------------        
 
  ■ 軌道要素1:「jamsat−keps:1279」より         
          SB KEPS @ AMSAT  $ORB03037.N
          2Line Orbital Elements 03037.AMSAT

HR AMSAT ORBITAL ELEMENTS FOR AMATEUR SATELLITES IN NASA FORMAT
FROM WA5QGD FORT WORTH,TX February 6, 2003
SEND SUBSCRIBE/UNSUBSCRIBE TO majordomo@amsat.org ONLY
BID: ORB03037.N

 DECODE 2-LINE ELSETS WITH THE FOLLOWING KEY:
 1 AAAAAU 00  0  0 BBBBB.BBBBBBBB  .CCCCCCCC  00000-0  00000-0 0  DDDZ
 2 AAAAA EEE.EEEE FFF.FFFF GGGGGGG HHH.HHHH III.IIII JJ.JJJJJJJJKKKKKZ
 KEY: A-CATALOGNUM B-EPOCHTIME C-DECAY D-ELSETNUM E-INCLINATION F-RAAN
 G-ECCENTRICITY H-ARGPERIGEE I-MNANOM J-MNMOTION K-ORBITNUM Z-CHECKSUM

FO-29
1 24278U 96046B   03036.96872375  .00000010  00000-0  48995-4 0  5588
2 24278  98.5339 189.8992 0349898 249.1829 107.1505 13.52870728319605

 ■ 軌道要素2:「jamsat−keps:1280」より 
       SB KEPS @ AMSAT  $ORB03037.O
       Orbital Elements  03037.OSCAR

HR AMSAT ORBITAL ELEMENTS FOR OSCAR SATELLITES
FROM WA5QGD FORT WORTH,TX February 6, 2003
SEND SUBSCRIBE/UNSUBSCRIBE TO majordomo@amsat.org ONLY
BID: ORB03037.O
TO ALL RADIO AMATEURS BT

Satellite: FO-29
Catalog number: 24278
Epoch time:      03036.96872375
Element set:     558
Inclination:       98.5339 deg
RA of node:       189.8992 deg
Eccentricity:    0.0349898
Arg of perigee:   249.1829 deg
Mean anomaly:     107.1505 deg
Mean motion:   13.52870728 rev/day
Decay rate:        1.0e-07 rev/day^2
Epoch rev:           31960
Checksum:              363

-------------------  FO-29(JAS-2)のテレメトリに関する情報  ---------------------- 
 
2)上記2003年2月8日(土)のテレメトリの15:55のパスの最終行を分析して
 おきます。

AS31992C  08Feb2003
16:00-16:11(JST)
AOS   MEL  LOS  Elev
 15   102  125  69.7
Freq. 435.802-.787Hz
(JAS-2  No.117  B 880-1450) 

HI HI AE C7 88 55 00 D4 69 DC 09 33 8A 61 81 60 90 90 B0 7E AB A9 AB AB A7 

テレメトリ   内 容        換算算値 単 位
3C	磁気センサーZ軸=	67647.0	[nT]
3D	磁気センサX軸	=	47549.0	[nT]
4A	太陽電池発生電流=	1264.7	[mA]
4B	B充放電電流	=	-118.4	[mA]
4C	B端子電圧	=	15.5	[V]
4D	B中間端子電圧	=	6.9	[V]
5A	バス電圧	=	17.3	[V]
5B	JTA送信電力	=	720.9	[mW]
5C 	構体温度1	=	15.5	[℃]
5D	構体温度2	=	16.2	[℃]
6A	構体温度3	=	15.5	[℃]
6B	構体温度4	=	15.5	[℃]
6C	Bセル温度	=	17.0	[℃]

 ========================== FO-29(ふじ3号)のテレメトリ分析、QSO情報等 =====================
   
